Montpelier, VT

7:58 AM EDT on June 26, 2017 (GMT -0400)
Knapp State

Weather History for KMPV - October, 2010

Change the Weather History Date:

Tuesday, October 26, 2010

  Actual Average Record
Temperature  
Mean Temperature 58 °F 42 °F  
Max Temperature 69 °F 52 °F 74 °F (1991)
Min Temperature 46 °F 33 °F 17 °F (1952)
Degree Days  
Heating Degree Days 8 23  
Month to date heating degree days 483  
Since 1 July heating degree days 838  
Cooling Degree Days 0 0  
Month to date cooling degree days 0  
Year to date cooling degree days 263  
Growing Degree Days 8 (Base 50)    
Moisture  
Dew Point 49 °F    
Average Humidity 91    
Maximum Humidity 100    
Minimum Humidity 61    
Precipitation  
Precipitation 0.23 in 0.10 in 0.77 in (1967)
Month to date precipitation 2.92  
Year to date precipitation 30.84  
Sea Level Pressure  
Sea Level Pressure 29.87 in    
Wind  
Wind Speed 2 mph (SE)    
Max Wind Speed 15 mph    
Max Gust Speed 23 mph    
Visibility 4 miles    
Events Fog , Rain    
T = Trace of Precipitation, MM = Missing Value Source: NWS Daily Summary

Daily Weather History Graph

Daily Weather History Graph

Search for Another Location

Airport or City:

Trip Planner

Search our weather history database for the weather conditions in past years. The results will help you decide how hot, cold, wet, or windy it might be!

Date:

Astronomy

Oct. 26, 2010 Rise Set
Actual Time 7:19 AM EDT 5:48 PM EDT
Civil Twilight 6:49 AM EDT 6:18 PM EDT
Nautical Twilight 6:15 AM EDT 6:52 PM EDT
Astronomical Twilight 5:41 AM EDT 7:25 PM EDT
Moon 7:59 PM EDT 11:06 AM EDT
Length of Visible Light 11h 29m
Length of Day
10h 29m
Waning Gibbous, 87% of the Moon is Illuminated
Oct 26
Waning Gibbous
Oct 30
Last Quarter
Nov 6
New
Nov 13
First Quarter
Nov 21
Full

Hourly Weather History & Observations

Time (EDT) Temp. Dew Point Humidity Pressure Visibility Wind Dir Wind Speed Gust Speed Precip Events Conditions
12:27 AM 48.2 °F 46.4 °F 93% 29.81 in 0.5 mi NE 3.5 mph - 0.04 in Fog , Rain Rain
12:51 AM 48.0 °F 46.9 °F 96% 29.83 in 1.0 mi Calm Calm - 0.08 in Rain Light Rain
12:53 AM 48.2 °F 46.4 °F 93% 29.81 in 1.5 mi Calm Calm - 0.00 in Rain Light Rain
1:14 AM 48.2 °F 46.4 °F 93% 29.82 in 1.0 mi Calm Calm - 0.04 in Rain Rain
1:23 AM 48.2 °F 46.4 °F 93% 29.82 in 0.8 mi Calm Calm - 0.06 in Rain Rain
1:30 AM 48.2 °F 46.4 °F 93% 29.82 in 1.2 mi Calm Calm - 0.08 in Rain Rain
1:37 AM 48.2 °F 46.4 °F 93% 29.82 in 1.8 mi Calm Calm - 0.11 in Rain Rain
1:51 AM 48.0 °F 46.9 °F 96% 29.84 in 2.0 mi Calm Calm - 0.14 in Rain Light Rain
1:58 AM 48.2 °F 46.4 °F 93% 29.82 in 2.5 mi Calm Calm - 0.00 in Rain Light Rain
2:03 AM 48.2 °F 46.4 °F 93% 29.82 in 1.5 mi Calm Calm - 0.01 in Rain Light Rain
2:07 AM 48.2 °F 46.4 °F 93% 29.82 in 1.0 mi Calm Calm - 0.01 in Rain Light Rain
2:15 AM 48.2 °F 46.4 °F 93% 29.82 in 1.0 mi Calm Calm - 0.01 in Rain Light Rain
2:17 AM 48.2 °F 46.4 °F 93% 29.82 in 0.8 mi Calm Calm - 0.01 in   Overcast
2:26 AM 48.2 °F 46.4 °F 93% 29.83 in 0.5 mi Calm Calm - 0.01 in Fog Fog
2:35 AM 48.2 °F 46.4 °F 93% 29.83 in 1.0 mi Calm Calm - 0.01 in Rain Light Rain
2:39 AM 48.2 °F 46.4 °F 93% 29.83 in 1.5 mi Calm Calm - 0.01 in Rain Light Rain
2:51 AM 48.0 °F 46.9 °F 96% 29.85 in 1.2 mi Calm Calm - 0.01 in Rain Light Rain
2:56 AM 48.2 °F 46.4 °F 93% 29.83 in 0.8 mi Calm Calm - 0.00 in Rain Light Rain
3:31 AM 48.2 °F 46.4 °F 93% 29.83 in 0.8 mi Calm Calm - N/A   Overcast
3:38 AM 46.4 °F 46.4 °F 100% 29.83 in 0.5 mi Calm Calm - 0.00 in Fog Fog
3:51 AM 46.9 °F 46.0 °F 97% 29.86 in 0.5 mi Calm Calm - 0.00 in Fog Fog
4:36 AM 48.2 °F 48.2 °F 100% 29.84 in 1.0 mi Calm Calm - N/A   Overcast
4:51 AM 48.0 °F 48.0 °F 100% 29.87 in 1.2 mi Calm Calm - N/A   Overcast
4:57 AM 48.2 °F 46.4 °F 93% 29.85 in 2.0 mi Calm Calm - N/A   Overcast
5:05 AM 48.2 °F 46.4 °F 93% 29.85 in 7.0 mi Calm Calm - N/A   Overcast
5:35 AM 48.2 °F 46.4 °F 93% 29.86 in 3.0 mi Calm Calm - N/A   Overcast
5:51 AM 48.0 °F 46.9 °F 96% 29.88 in 5.0 mi Calm Calm - N/A   Overcast
6:03 AM 48.2 °F 46.4 °F 93% 29.87 in 6.0 mi Calm Calm - N/A   Overcast
6:40 AM 48.2 °F 46.4 °F 93% 29.88 in 2.5 mi Calm Calm - N/A   Overcast
6:43 AM 48.2 °F 46.4 °F 93% 29.88 in 1.2 mi Calm Calm - N/A   Overcast
6:46 AM 48.2 °F 46.4 °F 93% 29.88 in 0.8 mi Calm Calm - N/A   Overcast
6:51 AM 48.0 °F 46.9 °F 96% 29.90 in 0.5 mi Calm Calm - N/A Fog Fog
7:51 AM 48.0 °F 46.9 °F 96% 29.91 in 0.2 mi Calm Calm - N/A Fog Fog
8:49 AM 48.2 °F 48.2 °F 100% 29.90 in 1.2 mi Calm Calm - N/A   Overcast
8:51 AM 48.9 °F 48.0 °F 97% 29.92 in 1.5 mi Calm Calm - N/A   Overcast
9:00 AM 48.2 °F 48.2 °F 100% 29.91 in 1.0 mi Calm Calm - N/A   Overcast
9:08 AM 48.2 °F 48.2 °F 100% 29.91 in 0.8 mi Calm Calm - N/A   Overcast
9:51 AM 50.0 °F 48.9 °F 96% 29.94 in 0.2 mi Calm Calm - N/A Fog Fog
10:09 AM 51.8 °F 51.8 °F 100% 29.91 in 1.2 mi Calm Calm - N/A   Overcast
10:14 AM 53.6 °F 51.8 °F 94% 29.92 in 2.0 mi NNW 4.6 mph - N/A   Overcast
10:24 AM 51.8 °F 50.0 °F 94% 29.92 in 1.0 mi North 4.6 mph - N/A   Overcast
10:31 AM 51.8 °F 50.0 °F 94% 29.92 in 0.2 mi North 3.5 mph - N/A Fog Fog
10:51 AM 52.0 °F 51.1 °F 97% 29.94 in 0.2 mi Calm Calm - N/A Fog Fog
11:17 AM 53.6 °F 51.8 °F 94% 29.92 in 1.0 mi Calm Calm - N/A   Overcast
11:22 AM 53.6 °F 51.8 °F 94% 29.92 in 1.5 mi Calm Calm - N/A   Overcast
11:28 AM 53.6 °F 53.6 °F 100% 29.93 in 3.0 mi Calm Calm - N/A   Overcast
11:51 AM 55.0 °F 53.1 °F 93% 29.95 in 6.0 mi Calm Calm - N/A   Mostly Cloudy
12:02 PM 55.4 °F 53.6 °F 94% 29.93 in 7.0 mi Calm Calm - N/A   Scattered Clouds
12:51 PM 60.1 °F 55.0 °F 83% 29.92 in 10.0 mi ENE 4.6 mph - N/A   Clear
1:51 PM 64.0 °F 57.0 °F 78% 29.90 in 10.0 mi NE 3.5 mph - N/A   Clear
2:51 PM 69.1 °F 55.0 °F 61% 29.88 in 10.0 mi SSE 9.2 mph - N/A   Clear
3:51 PM 68.0 °F 55.0 °F 63% 29.89 in 10.0 mi South 11.5 mph - N/A   Clear
4:51 PM 66.0 °F 54.0 °F 65% 29.90 in 10.0 mi South 11.5 mph 20.7 mph N/A   Clear
5:51 PM 63.0 °F 54.0 °F 72% 29.89 in 10.0 mi South 11.5 mph - N/A   Clear
6:51 PM 62.1 °F 54.0 °F 75% 29.90 in 10.0 mi South 8.1 mph - N/A   Clear
7:51 PM 61.0 °F 55.0 °F 81% 29.89 in 10.0 mi South 6.9 mph - N/A   Clear
8:51 PM 62.1 °F 55.0 °F 78% 29.90 in 10.0 mi SSE 6.9 mph - N/A   Clear
9:51 PM 62.1 °F 55.9 °F 80% 29.90 in 10.0 mi SSE 12.7 mph - N/A   Clear
10:11 PM 62.6 °F 55.4 °F 77% 29.89 in 10.0 mi SSE 15.0 mph 20.7 mph N/A   Mostly Cloudy
10:51 PM 62.1 °F 57.0 °F 84% 29.88 in 10.0 mi South 15.0 mph 23.0 mph N/A   Overcast
11:51 PM 62.1 °F 57.0 °F 84% 29.89 in 10.0 mi South 11.5 mph - N/A   Overcast